Location: Malters
(47.0379°N, 8.1801°E)
Time: 19:32:47
(UTC+01:00)

ISS - Visible Passes

Search period start: 18 December 2017 00:00
Search period end: 28 December 2017 00:00
Orbit: 402 x 406 km, 51.6° (Epoch: 19 December)

Date Brightness Start Highest point End Pass type
(mag) Time Alt. Az. Time Alt. Az. Time Alt. Az.
25 Dec -0.7 07:36:26 10° S 07:38:56 20° SE 07:41:28 10° E visible
26 Dec -0.4 06:45:30 10° SSE 06:46:50 12° SE 06:48:10 10° ESE visible
27 Dec -2.4 07:27:24 10° SW 07:30:29 41° SE 07:33:36 10° ENE visible
